�������l�o���
Date,Time,MP-1(��Sv/h),MP-2(��Sv/h),MP-3(��Sv/h),MP-4(��Sv/h),MP-5(��Sv/h),MP-6(��Sv/h),MP-7(��Sv/h),MP-8(��Sv/h),����,����(m/s),���J
2021/01/03,00:00,0.659,0.943,0.602,1.190,0.836,0.375,0.668,0.629,���k��,7.6,��
2021/01/03,00:10,0.659,0.942,0.598,1.190,0.839,0.373,0.667,0.628,���k��,8.1,��
2021/01/03,00:20,0.660,0.942,0.600,1.191,0.839,0.375,0.669,0.631,���k��,8.6,��
2021/01/03,00:30,0.661,0.944,0.601,1.191,0.839,0.376,0.668,0.629,���k��,9.9,��
2021/01/03,00:40,0.660,0.941,0.600,1.191,0.837,0.375,0.668,0.630,���k��,9.9,��
2021/01/03,00:50,0.662,0.941,0.600,1.190,0.839,0.375,0.669,0.630,���k��,7.8,��
2021/01/03,01:00,0.658,0.940,0.600,1.188,0.837,0.375,0.667,0.630,���k��,8.3,��
2021/01/03,01:10,0.660,0.940,0.600,1.190,0.836,0.373,0.667,0.630,���k��,8.0,��
2021/01/03,01:20,0.661,0.942,0.600,1.190,0.837,0.375,0.668,0.631,���k��,7.1,��
2021/01/03,01:30,0.661,0.943,0.600,1.188,0.833,0.374,0.668,0.630,���k��,6.3,��
2021/01/03,01:40,0.659,0.941,0.601,1.192,0.838,0.375,0.668,0.631,���k��,7.3,��
2021/01/03,01:50,0.660,0.941,0.602,1.189,0.838,0.375,0.668,0.631,���k��,7.9,��
2021/01/03,02:00,0.660,0.942,0.601,1.191,0.836,0.374,0.670,0.630,���k��,9.2,��
2021/01/03,02:10,0.658,0.942,0.604,1.188,0.838,0.375,0.668,0.630,���k��,8.5,��
2021/01/03,02:20,0.661,0.941,0.603,1.191,0.834,0.374,0.669,0.630,���k��,8.4,��
2021/01/03,02:30,0.661,0.943,0.604,1.186,0.836,0.374,0.668,0.631,���k��,6.8,��
2021/01/03,02:40,0.660,0.945,0.602,1.191,0.837,0.374,0.669,0.629,���k��,7.6,��
2021/01/03,02:50,0.661,0.940,0.600,1.190,0.836,0.375,0.669,0.630,���k��,8.0,��
2021/01/03,03:00,0.660,0.943,0.603,1.190,0.837,0.374,0.669,0.631,���k��,8.0,��
2021/01/03,03:10,0.660,0.942,0.601,1.191,0.839,0.373,0.669,0.629,���k��,7.7,��
2021/01/03,03:20,0.662,0.945,0.602,1.192,0.837,0.374,0.669,0.630,���k��,8.2,��
2021/01/03,03:30,0.659,0.943,0.601,1.190,0.836,0.373,0.668,0.629,���k��,9.4,��
2021/01/03,03:40,0.660,0.943,0.603,1.191,0.836,0.375,0.669,0.631,���k��,7.8,��
2021/01/03,03:50,0.659,0.944,0.602,1.190,0.835,0.374,0.669,0.630,���k��,7.0,��
2021/01/03,04:00,0.661,0.944,0.602,1.190,0.835,0.372,0.668,0.631,���k��,7.4,��
2021/01/03,04:10,0.658,0.942,0.602,1.191,0.835,0.374,0.668,0.631,���k��,7.4,��
2021/01/03,04:20,0.659,0.943,0.602,1.191,0.836,0.375,0.669,0.630,���k��,7.1,��
2021/01/03,04:30,0.660,0.943,0.601,1.192,0.838,0.376,0.667,0.630,���k��,6.5,��
2021/01/03,04:40,0.658,0.941,0.602,1.190,0.835,0.375,0.669,0.630,���k��,6.5,��
2021/01/03,04:50,0.661,0.942,0.601,1.191,0.834,0.375,0.670,0.630,���k��,5.4,��
2021/01/03,05:00,0.658,0.943,0.602,1.190,0.839,0.375,0.669,0.630,���k��,6.5,��
2021/01/03,05:10,0.659,0.942,0.604,1.191,0.834,0.375,0.668,0.630,���k��,7.3,��
2021/01/03,05:20,0.659,0.942,0.601,1.190,0.836,0.375,0.668,0.631,���k��,9.2,��
2021/01/03,05:30,0.659,0.942,0.603,1.188,0.837,0.375,0.669,0.630,���k��,7.5,��
2021/01/03,05:40,0.659,0.940,0.601,1.190,0.834,0.374,0.668,0.629,���k��,7.0,��
2021/01/03,05:50,0.658,0.942,0.602,1.193,0.834,0.375,0.668,0.630,���k��,7.5,��
2021/01/03,06:00,0.658,0.942,0.603,1.191,0.833,0.375,0.668,0.630,���k��,6.3,��
2021/01/03,06:10,0.660,0.940,0.602,1.190,0.835,0.374,0.670,0.630,���k��,4.8,��
2021/01/03,06:20,0.659,0.941,0.603,1.189,0.837,0.375,0.670,0.631,���k��,7.5,��
2021/01/03,06:30,0.659,0.942,0.602,1.191,0.835,0.375,0.667,0.630,���k��,5.7,��
2021/01/03,06:40,0.659,0.944,0.603,1.190,0.835,0.374,0.668,0.630,���k��,5.4,��
2021/01/03,06:50,0.656,0.940,0.600,1.191,0.834,0.372,0.669,0.629,���k��,4.8,��
2021/01/03,07:00,0.659,0.942,0.601,1.190,0.836,0.373,0.669,0.631,���k��,6.7,��
2021/01/03,07:10,0.659,0.940,0.600,1.191,0.836,0.374,0.669,0.629,���k��,6.9,��
2021/01/03,07:20,0.660,0.941,0.602,1.190,0.835,0.375,0.668,0.631,���k��,4.1,��
2021/01/03,07:30,0.657,0.941,0.601,1.190,0.835,0.374,0.668,0.631,���k��,4.0,��
2021/01/03,07:40,0.661,0.941,0.602,1.190,0.834,0.374,0.669,0.630,��,6.2,��
2021/01/03,07:50,0.660,0.941,0.603,1.193,0.833,0.374,0.668,0.631,��,5.2,��
2021/01/03,08:00,0.660,0.940,0.601,1.192,0.836,0.376,0.669,0.628,���k��,5.3,��
2021/01/03,08:10,0.659,0.941,0.602,1.190,0.836,0.374,0.669,0.629,���k��,7.8,��
2021/01/03,08:20,0.660,0.945,0.600,1.191,0.834,0.376,0.668,0.631,���k��,8.0,��
2021/01/03,08:30,0.660,0.943,0.601,1.190,0.836,0.377,0.669,0.629,���k��,6.8,��
2021/01/03,08:40,0.659,0.941,0.603,1.191,0.835,0.375,0.670,0.630,�k��,4.2,��
2021/01/03,08:50,0.659,0.944,0.601,1.190,0.834,0.375,0.669,0.632,�k,4.3,��
2021/01/03,09:00,0.659,0.943,0.603,1.191,0.835,0.375,0.669,0.630,�k�k��,3.4,��
2021/01/03,09:10,0.660,0.943,0.603,1.190,0.834,0.374,0.669,0.630,�k,1.9,��
2021/01/03,09:20,0.661,0.942,0.603,1.192,0.835,0.375,0.670,0.630,�k�k��,2.2,��
2021/01/03,09:30,0.663,0.943,0.602,1.189,0.836,0.374,0.668,0.632,�k�k��,2.3,��
2021/01/03,09:40,0.664,0.944,0.601,1.190,0.837,0.374,0.670,0.632,�k�k��,2.8,��
2021/01/03,09:50,0.662,0.945,0.603,1.191,0.836,0.374,0.670,0.629,�k,3.0,��
2021/01/03,10:00,0.662,0.946,0.602,1.193,0.835,0.375,0.669,0.630,��,3.2,��
2021/01/03,10:10,0.660,0.946,0.604,1.192,0.834,0.375,0.667,0.631,��,3.1,��
2021/01/03,10:20,0.660,0.945,0.604,1.191,0.837,0.375,0.667,0.633,���k��,1.5,��
2021/01/03,10:30,0.661,0.944,0.603,1.192,0.836,0.375,0.669,0.631,��,2.2,��
2021/01/03,10:40,0.662,0.944,0.603,1.193,0.837,0.377,0.669,0.632,��,2.9,��
2021/01/03,10:50,0.662,0.941,0.606,1.191,0.838,0.375,0.666,0.631,��,2.6,��
2021/01/03,11:00,0.659,0.945,0.604,1.191,0.839,0.375,0.668,0.630,���쓌,2.2,��
2021/01/03,11:10,0.662,0.943,0.603,1.190,0.840,0.375,0.669,0.630,�쓌,2.6,��
2021/01/03,11:20,0.663,0.947,0.604,1.191,0.838,0.376,0.666,0.630,�쓌,3.8,��
2021/01/03,11:30,0.662,0.947,0.604,1.192,0.839,0.375,0.670,0.631,��쓌,3.0,��
2021/01/03,11:40,0.662,0.945,0.605,1.191,0.842,0.375,0.671,0.633,�쓌,2.9,��
2021/01/03,11:50,0.660,0.947,0.604,1.190,0.840,0.377,0.670,0.631,��쓌,2.0,��
2021/01/03,12:00,0.663,0.948,0.605,1.191,0.840,0.375,0.670,0.631,�쓌,3.0,��
2021/01/03,12:10,0.663,0.949,0.605,1.193,0.840,0.376,0.671,0.632,��쓌,3.5,��
2021/01/03,12:20,0.662,0.948,0.604,1.191,0.841,0.376,0.670,0.631,��쓌,4.0,��
2021/01/03,12:30,0.662,0.947,0.604,1.193,0.841,0.375,0.672,0.633,��쓌,4.9,��
2021/01/03,12:40,0.664,0.948,0.606,1.191,0.841,0.376,0.670,0.632,��쓌,3.9,��
2021/01/03,12:50,0.663,0.947,0.604,1.194,0.840,0.375,0.671,0.633,�쓌,4.2,��
2021/01/03,13:00,0.663,0.948,0.605,1.194,0.841,0.377,0.669,0.630,���쓌,3.8,��
2021/01/03,13:10,0.662,0.948,0.604,1.193,0.840,0.375,0.669,0.630,���쓌,3.2,��
2021/01/03,13:20,0.663,0.948,0.604,1.194,0.842,0.376,0.671,0.630,���쓌,3.3,��
2021/01/03,13:30,0.663,0.950,0.605,1.193,0.842,0.376,0.671,0.631,���쓌,3.9,��
2021/01/03,13:40,0.662,0.952,0.604,1.193,0.843,0.376,0.671,0.629,�쓌,3.2,��
2021/01/03,13:50,0.663,0.949,0.606,1.194,0.842,0.376,0.670,0.630,�쓌,3.6,��
2021/01/03,14:00,0.662,0.951,0.605,1.192,0.841,0.376,0.668,0.630,�쓌,4.2,��
2021/01/03,14:10,0.663,0.949,0.604,1.194,0.841,0.375,0.672,0.629,��쓌,2.6,��
2021/01/03,14:20,0.663,0.951,0.605,1.192,0.842,0.376,0.670,0.630,��,3.2,��
2021/01/03,14:30,0.665,0.949,0.605,1.193,0.843,0.378,0.670,0.632,�쓌,3.3,��
2021/01/03,14:40,0.666,0.950,0.606,1.191,0.842,0.375,0.670,0.631,�쐼,2.8,��
2021/01/03,14:50,0.665,0.950,0.607,1.193,0.844,0.378,0.670,0.632,��,0.8,��
2021/01/03,15:00,0.664,0.950,0.606,1.193,0.840,0.374,0.670,0.632,�k��,3.6,��
2021/01/03,15:10,0.664,0.951,0.604,1.195,0.842,0.376,0.671,0.632,�k,5.4,��
2021/01/03,15:20,0.662,0.952,0.605,1.192,0.843,0.376,0.673,0.631,�k,6.5,��
2021/01/03,15:30,0.663,0.949,0.604,1.194,0.842,0.375,0.670,0.631,�k�k��,6.1,��
2021/01/03,15:40,0.662,0.951,0.604,1.195,0.844,0.376,0.670,0.630,�k�k��,5.7,��
2021/01/03,15:50,0.663,0.950,0.605,1.193,0.841,0.375,0.670,0.631,�k�k��,6.2,��
2021/01/03,16:00,0.662,0.952,0.604,1.193,0.842,0.376,0.669,0.631,�k�k��,5.3,��
2021/01/03,16:10,0.663,0.950,0.606,1.193,0.844,0.376,0.670,0.631,�k��,4.2,��
2021/01/03,16:20,0.660,0.950,0.604,1.192,0.842,0.377,0.669,0.631,�k��,5.2,��
2021/01/03,16:30,0.661,0.949,0.605,1.193,0.842,0.376,0.670,0.630,�k��,5.0,��
2021/01/03,16:40,0.661,0.950,0.604,1.193,0.842,0.375,0.670,0.631,�k��,6.0,��
2021/01/03,16:50,0.659,0.949,0.605,1.195,0.843,0.374,0.670,0.630,�k��,6.1,��
2021/01/03,17:00,0.661,0.951,0.604,1.192,0.842,0.375,0.669,0.630,�k��,4.7,��
2021/01/03,17:10,0.662,0.951,0.603,1.195,0.842,0.375,0.669,0.632,�k��,3.8,��
2021/01/03,17:20,0.662,0.950,0.604,1.190,0.841,0.374,0.670,0.630,���k��,3.7,��
2021/01/03,17:30,0.662,0.949,0.603,1.192,0.841,0.376,0.667,0.631,���k��,4.6,��
2021/01/03,17:40,0.659,0.950,0.606,1.193,0.843,0.376,0.669,0.631,���k��,4.1,��
2021/01/03,17:50,0.659,0.948,0.604,1.195,0.842,0.376,0.669,0.630,���k��,4.3,��
2021/01/03,18:00,0.660,0.949,0.603,1.190,0.840,0.374,0.668,0.630,���k��,4.7,��
2021/01/03,18:10,0.659,0.947,0.604,1.193,0.841,0.374,0.668,0.629,��,4.9,��
2021/01/03,18:20,0.661,0.946,0.603,1.193,0.842,0.375,0.667,0.629,��,5.0,��
2021/01/03,18:30,0.660,0.950,0.603,1.192,0.841,0.375,0.670,0.631,��,4.9,��
2021/01/03,18:40,0.661,0.948,0.603,1.189,0.840,0.374,0.671,0.632,��,6.0,��
2021/01/03,18:50,0.661,0.949,0.604,1.193,0.842,0.374,0.669,0.630,��,6.0,��
2021/01/03,19:00,0.661,0.948,0.603,1.193,0.842,0.376,0.669,0.631,��,6.6,��
2021/01/03,19:10,0.661,0.945,0.604,1.195,0.843,0.374,0.667,0.630,��,6.1,��
2021/01/03,19:20,0.661,0.947,0.602,1.191,0.841,0.375,0.669,0.631,��,5.2,��
2021/01/03,19:30,0.661,0.947,0.603,1.193,0.840,0.375,0.669,0.629,��,4.8,��
2021/01/03,19:40,0.661,0.948,0.604,1.194,0.839,0.375,0.669,0.631,��,4.8,��
2021/01/03,19:50,0.660,0.947,0.605,1.194,0.842,0.375,0.671,0.631,��,4.9,��
2021/01/03,20:00,0.661,0.946,0.604,1.191,0.841,0.376,0.669,0.631,��,4.5,��
2021/01/03,20:10,0.661,0.946,0.604,1.193,0.841,0.374,0.667,0.630,��,2.8,��
2021/01/03,20:20,0.659,0.947,0.606,1.192,0.840,0.376,0.669,0.631,��,2.3,��
2021/01/03,20:30,0.658,0.947,0.603,1.190,0.841,0.375,0.668,0.630,���k��,3.4,��
2021/01/03,20:40,0.660,0.946,0.603,1.191,0.840,0.375,0.669,0.631,���k��,3.5,��
2021/01/03,20:50,0.662,0.947,0.604,1.193,0.841,0.374,0.669,0.631,��,2.3,��
2021/01/03,21:00,0.661,0.947,0.602,1.195,0.838,0.375,0.669,0.631,��,2.3,��
2021/01/03,21:10,0.663,0.948,0.604,1.190,0.842,0.374,0.668,0.632,��,2.0,��
2021/01/03,21:20,0.661,0.945,0.602,1.193,0.840,0.376,0.668,0.631,��,2.8,��
2021/01/03,21:30,0.661,0.945,0.603,1.193,0.841,0.376,0.669,0.630,���쐼,4.3,��
2021/01/03,21:40,0.662,0.945,0.603,1.194,0.842,0.375,0.667,0.631,���쐼,6.6,��
2021/01/03,21:50,0.661,0.947,0.603,1.192,0.839,0.375,0.669,0.630,���쐼,6.5,��
2021/01/03,22:00,0.663,0.946,0.604,1.193,0.841,0.377,0.668,0.631,���쐼,6.5,��
2021/01/03,22:10,0.660,0.947,0.602,1.193,0.840,0.375,0.669,0.630,��,7.7,��
2021/01/03,22:20,0.663,0.947,0.603,1.193,0.841,0.376,0.669,0.631,��,6.9,��
2021/01/03,22:30,0.661,0.946,0.603,1.194,0.840,0.374,0.668,0.631,��,7.7,��
2021/01/03,22:40,0.663,0.947,0.604,1.195,0.840,0.374,0.668,0.630,��,6.8,��
2021/01/03,22:50,0.663,0.948,0.604,1.194,0.841,0.375,0.669,0.630,��,6.5,��
2021/01/03,23:00,0.662,0.948,0.604,1.193,0.840,0.377,0.668,0.630,���쐼,4.7,��
2021/01/03,23:10,0.662,0.946,0.604,1.195,0.841,0.376,0.669,0.631,�쐼,3.9,��
2021/01/03,23:20,0.664,0.948,0.604,1.195,0.839,0.376,0.668,0.632,�쐼,3.9,��
2021/01/03,23:30,0.663,0.947,0.606,1.195,0.842,0.374,0.669,0.630,�쐼,5.3,��
2021/01/03,23:40,0.661,0.947,0.605,1.193,0.841,0.375,0.668,0.630,��쐼,4.9,��
2021/01/03,23:50,0.665,0.947,0.603,1.191,0.840,0.376,0.667,0.631,��쐼,3.7,��
